Location: Cabo di Oristano
(39.8500°N, 8.4333°E)
Time: 16:56:42
(UTC+00:00)

USA 267 - Pass Details

Date: 31 January 2023
Orbit: 1101 x 1106 km, 123.0° (Epoch: 27 March)

Event Time Altitude Azimuth Distance (km) Brightness Sun altitude
Rises 05:35:39 0° 45° (NE) 3,923 6.6 -11.8°
Reaches altitude 10° 05:38:31 10° 34° (NNE) 2,964 5.8 -11.3°
Maximum altitude 05:43:47 27° 340° (NNW) 1,979 4.3 -10.3°
Enters shadow 05:48:45 11° 287° (WNW) 2,871 4.8 -9.4°
